Time,TemperatureF,DewpointF,PressureIn,WindDirection,WindDirectionDegrees,WindSpeedMPH,WindSpeedGustMPH,Humidity,HourlyPrecipIn,Conditions,Clouds,dailyrainin,SoftwareType,DateUTC
2013-02-01 00:04:00,37.1,25.0,30.06,SSW,207,0.0,5.0,62,0.00,,,0.00,weatherlink.com 1.10,2013-02-01 05:04:00,
2013-02-01 00:19:00,36.8,25.0,30.05,WSW,240,1.0,6.0,63,0.00,,,0.00,weatherlink.com 1.10,2013-02-01 05:19:00,
2013-02-01 00:34:00,36.8,26.0,30.05,SW,225,0.0,6.0,64,0.00,,,0.00,weatherlink.com 1.10,2013-02-01 05:34:00,
2013-02-01 00:49:00,36.3,26.0,30.05,SSW,199,1.0,3.0,66,0.00,,,0.00,weatherlink.com 1.10,2013-02-01 05:49:00,
2013-02-01 01:04:00,36.0,26.0,30.05,SSW,198,2.0,3.0,67,0.00,,,0.00,weatherlink.com 1.10,2013-02-01 06:04:00,
2013-02-01 01:19:00,35.8,26.0,30.05,SW,215,2.0,4.0,67,0.00,,,0.00,weatherlink.com 1.10,2013-02-01 06:19:00,
2013-02-01 01:34:00,35.4,26.0,30.04,SW,235,1.0,3.0,69,0.00,,,0.00,weatherlink.com 1.10,2013-02-01 06:34:00,
2013-02-01 01:49:00,35.3,26.0,30.03,SSW,205,0.0,4.0,70,0.00,,,0.00,weatherlink.com 1.10,2013-02-01 06:49:00,
2013-02-01 02:04:00,35.2,26.0,30.02,SSW,204,2.0,3.0,70,0.00,,,0.00,weatherlink.com 1.10,2013-02-01 07:04:00,
2013-02-01 02:19:00,35.1,26.0,30.03,ESE,115,3.0,4.0,69,0.00,,,0.00,weatherlink.com 1.10,2013-02-01 07:19:00,
2013-02-01 02:34:00,35.0,26.0,30.03,SSE,162,1.0,2.0,70,0.00,,,0.00,weatherlink.com 1.10,2013-02-01 07:34:00,
2013-02-01 02:49:00,34.9,26.0,30.03,ESE,118,0.0,4.0,71,0.00,,,0.00,weatherlink.com 1.10,2013-02-01 07:49:00,
2013-02-01 03:04:00,34.7,27.0,30.02,East,89,0.0,1.0,72,0.00,,,0.00,weatherlink.com 1.10,2013-02-01 08:04:00,
2013-02-01 03:19:00,35.1,27.0,30.02,East,81,0.0,2.0,71,0.00,,,0.00,weatherlink.com 1.10,2013-02-01 08:19:00,
2013-02-01 03:34:00,35.3,27.0,30.01,ESE,110,0.0,3.0,71,0.00,,,0.00,weatherlink.com 1.10,2013-02-01 08:34:00,
2013-02-01 03:49:00,35.7,27.0,30.00,South,184,0.0,5.0,71,0.00,,,0.00,weatherlink.com 1.10,2013-02-01 08:49:00,
2013-02-01 04:04:00,35.7,27.0,29.99,NNW,333,0.0,4.0,71,0.00,,,0.00,weatherlink.com 1.10,2013-02-01 09:04:00,
2013-02-01 04:19:00,35.6,27.0,29.99,SSE,162,1.0,2.0,71,0.00,,,0.00,weatherlink.com 1.10,2013-02-01 09:19:00,
2013-02-01 04:34:00,35.3,27.0,29.99,SE,126,1.0,1.0,72,0.00,,,0.00,weatherlink.com 1.10,2013-02-01 09:34:00,
2013-02-01 04:49:00,35.4,28.0,29.99,South,170,1.0,2.0,73,0.00,,,0.00,weatherlink.com 1.10,2013-02-01 09:49:00,
2013-02-01 05:04:00,35.3,27.0,30.00,SE,127,0.0,1.0,72,0.00,,,0.00,weatherlink.com 1.10,2013-02-01 10:04:00,
2013-02-01 05:19:00,35.7,28.0,30.01,East,98,0.0,1.0,73,0.00,,,0.00,weatherlink.com 1.10,2013-02-01 10:19:00,
2013-02-01 05:34:00,36.7,28.0,30.02,WSW,255,1.0,7.0,71,0.00,,,0.00,weatherlink.com 1.10,2013-02-01 10:34:00,
2013-02-01 05:49:00,39.5,29.0,30.03,SW,224,3.0,9.0,67,0.00,,,0.00,weatherlink.com 1.10,2013-02-01 10:49:00,
2013-02-01 06:04:00,40.7,26.0,30.03,WSW,248,2.0,12.0,56,0.00,,,0.00,weatherlink.com 1.10,2013-02-01 11:04:00,
2013-02-01 06:19:00,40.3,25.0,30.04,South,186,4.0,10.0,55,0.00,,,0.00,weatherlink.com 1.10,2013-02-01 11:19:00,
2013-02-01 06:34:00,39.6,24.0,30.05,East,100,1.0,10.0,54,0.00,,,0.00,weatherlink.com 1.10,2013-02-01 11:34:00,
2013-02-01 06:50:00,38.6,20.0,30.07,NW,314,2.0,6.0,47,0.00,,,0.00,weatherlink.com 1.10,2013-02-01 11:50:00,
2013-02-01 07:05:00,37.4,26.0,30.09,North,358,2.0,11.0,63,0.00,,,0.00,weatherlink.com 1.10,2013-02-01 12:05:00,
2013-02-01 07:20:00,35.1,24.0,30.09,NW,305,2.0,7.0,63,0.00,,,0.00,weatherlink.com 1.10,2013-02-01 12:20:00,
2013-02-01 07:35:00,34.0,20.0,30.11,NW,326,2.0,10.0,57,0.00,,,0.00,weatherlink.com 1.10,2013-02-01 12:35:00,
2013-02-01 07:50:00,33.3,17.0,30.12,SE,127,2.0,9.0,52,0.00,,,0.00,weatherlink.com 1.10,2013-02-01 12:50:00,
2013-02-01 08:05:00,33.1,13.0,30.14,North,1,9.0,10.0,44,0.00,,,0.00,weatherlink.com 1.10,2013-02-01 13:05:00,
2013-02-01 08:20:00,32.8,10.0,30.16,WNW,296,7.0,11.0,39,0.00,,,0.00,weatherlink.com 1.10,2013-02-01 13:20:00,
2013-02-01 08:35:00,32.4,11.0,30.17,NNE,15,2.0,9.0,41,0.00,,,0.00,weatherlink.com 1.10,2013-02-01 13:35:00,
2013-02-01 08:50:00,32.3,11.0,30.18,NNW,333,3.0,9.0,41,0.00,,,0.00,weatherlink.com 1.10,2013-02-01 13:50:00,
2013-02-01 09:05:00,32.4,10.0,30.20,WNW,303,4.0,10.0,40,0.00,,,0.00,weatherlink.com 1.10,2013-02-01 14:05:00,
2013-02-01 09:20:00,32.7,9.0,30.21,NE,53,3.0,11.0,37,0.00,,,0.00,weatherlink.com 1.10,2013-02-01 14:20:00,
2013-02-01 09:35:00,32.6,7.0,30.22,NE,40,4.0,12.0,34,0.00,,,0.00,weatherlink.com 1.10,2013-02-01 14:35:00,
2013-02-01 09:50:00,32.6,7.0,30.23,WNW,293,1.0,6.0,34,0.00,,,0.00,weatherlink.com 1.10,2013-02-01 14:50:00,
2013-02-01 10:20:00,32.9,9.0,30.25,NE,40,3.0,8.0,37,0.00,,,0.00,weatherlink.com 1.10,2013-02-01 15:20:00,
2013-02-01 10:35:00,32.3,12.0,30.27,NNE,15,1.0,6.0,43,0.00,,,0.00,weatherlink.com 1.10,2013-02-01 15:35:00,
2013-02-01 10:50:00,32.0,13.0,30.27,NNE,12,3.0,7.0,45,0.00,,,0.00,weatherlink.com 1.10,2013-02-01 15:50:00,
2013-02-01 11:05:00,32.0,13.0,30.27,NE,34,4.0,10.0,46,0.00,,,0.00,weatherlink.com 1.10,2013-02-01 16:05:00,
2013-02-01 11:20:00,32.9,14.0,30.28,NE,34,7.0,11.0,46,0.00,,,0.00,weatherlink.com 1.10,2013-02-01 16:20:00,
2013-02-01 11:35:00,32.9,12.0,30.28,NE,46,6.0,9.0,43,0.00,,,0.00,weatherlink.com 1.10,2013-02-01 16:35:00,
2013-02-01 11:50:00,33.6,13.0,30.28,NW,312,3.0,8.0,42,0.00,,,0.00,weatherlink.com 1.10,2013-02-01 16:50:00,
2013-02-01 12:05:00,33.9,12.0,30.29,NNW,332,2.0,11.0,40,0.00,,,0.00,weatherlink.com 1.10,2013-02-01 17:05:00,
2013-02-01 12:20:00,34.7,13.0,30.28,NNW,329,4.0,7.0,40,0.00,,,0.00,weatherlink.com 1.10,2013-02-01 17:20:00,
2013-02-01 12:35:00,35.6,13.0,30.28,NNW,331,7.0,9.0,39,0.00,,,0.00,weatherlink.com 1.10,2013-02-01 17:35:00,
2013-02-01 12:50:00,35.6,12.0,30.27,NNW,332,4.0,9.0,38,0.00,,,0.00,weatherlink.com 1.10,2013-02-01 17:50:00,
2013-02-01 13:05:00,36.1,13.0,30.28,NNE,32,3.0,9.0,38,0.00,,,0.00,weatherlink.com 1.10,2013-02-01 18:05:00,
2013-02-01 13:20:00,36.5,11.0,30.28,North,351,6.0,11.0,35,0.00,,,0.00,weatherlink.com 1.10,2013-02-01 18:20:00,
2013-02-01 13:36:00,37.2,14.0,30.27,NW,316,6.0,7.0,38,0.00,,,0.00,weatherlink.com 1.10,2013-02-01 18:36:00,
2013-02-01 13:50:00,37.2,12.0,30.27,NNW,329,2.0,9.0,36,0.00,,,0.00,weatherlink.com 1.10,2013-02-01 18:50:00,
2013-02-01 14:05:00,37.9,13.0,30.27,NW,309,5.0,7.0,36,0.00,,,0.00,weatherlink.com 1.10,2013-02-01 19:05:00,
2013-02-01 14:20:00,38.2,12.0,30.27,NNW,345,5.0,10.0,34,0.00,,,0.00,weatherlink.com 1.10,2013-02-01 19:20:00,
2013-02-01 14:35:00,38.1,12.0,30.27,NW,320,3.0,8.0,34,0.00,,,0.00,weatherlink.com 1.10,2013-02-01 19:35:00,
2013-02-01 14:50:00,38.5,12.0,30.27,SSW,208,3.0,8.0,34,0.00,,,0.00,weatherlink.com 1.10,2013-02-01 19:50:00,
2013-02-01 15:05:00,39.1,13.0,30.27,NW,314,3.0,8.0,34,0.00,,,0.00,weatherlink.com 1.10,2013-02-01 20:05:00,
2013-02-01 15:20:00,38.7,12.0,30.28,North,11,4.0,8.0,34,0.00,,,0.00,weatherlink.com 1.10,2013-02-01 20:20:00,
2013-02-01 15:36:00,38.5,12.0,30.28,North,354,5.0,7.0,34,0.00,,,0.00,weatherlink.com 1.10,2013-02-01 20:36:00,
2013-02-01 15:51:00,38.7,12.0,30.28,North,359,3.0,7.0,34,0.00,,,0.00,weatherlink.com 1.10,2013-02-01 20:51:00,
2013-02-01 16:06:00,38.0,12.0,30.28,North,360,2.0,8.0,35,0.00,,,0.00,weatherlink.com 1.10,2013-02-01 21:06:00,
2013-02-01 16:21:00,37.9,12.0,30.28,NW,321,4.0,7.0,35,0.00,,,0.00,weatherlink.com 1.10,2013-02-01 21:21:00,
2013-02-01 16:36:00,37.3,12.0,30.29,NNE,18,5.0,8.0,35,0.00,,,0.00,weatherlink.com 1.10,2013-02-01 21:36:00,
2013-02-01 16:51:00,36.7,11.0,30.29,NNE,13,5.0,7.0,35,0.00,,,0.00,weatherlink.com 1.10,2013-02-01 21:51:00,
2013-02-01 17:06:00,36.0,11.0,30.29,NNW,336,3.0,9.0,36,0.00,,,0.00,weatherlink.com 1.10,2013-02-01 22:06:00,
2013-02-01 17:21:00,35.6,11.0,30.29,NW,316,2.0,8.0,36,0.00,,,0.00,weatherlink.com 1.10,2013-02-01 22:21:00,
2013-02-01 17:36:00,35.1,11.0,30.30,NNW,329,3.0,6.0,37,0.00,,,0.00,weatherlink.com 1.10,2013-02-01 22:36:00,
2013-02-01 17:52:00,34.5,12.0,30.29,North,356,1.0,8.0,39,0.00,,,0.00,weatherlink.com 1.10,2013-02-01 22:52:00,
2013-02-01 18:06:00,33.7,12.0,30.30,NNE,28,5.0,5.0,40,0.00,,,0.00,weatherlink.com 1.10,2013-02-01 23:06:00,
2013-02-01 18:21:00,33.1,11.0,30.30,NNE,23,2.0,-999.0,40,-99.99,,,0.00,weatherlink.com 1.10,2013-02-01 23:21:00,
2013-02-01 18:36:00,32.4,12.0,30.31,North,9,1.0,5.0,42,0.00,,,0.00,weatherlink.com 1.10,2013-02-01 23:36:00,
2013-02-01 18:51:00,31.3,13.0,30.32,NNE,20,0.0,2.0,47,0.00,,,0.00,weatherlink.com 1.10,2013-02-01 23:51:00,
2013-02-01 19:06:00,30.8,11.0,30.32,NNE,17,0.0,3.0,44,0.00,,,0.00,weatherlink.com 1.10,2013-02-02 00:06:00,
2013-02-01 19:21:00,31.0,11.0,30.33,NW,316,1.0,4.0,44,0.00,,,0.00,weatherlink.com 1.10,2013-02-02 00:21:00,
2013-02-01 19:36:00,30.8,11.0,30.33,NNE,13,0.0,4.0,44,0.00,,,0.00,weatherlink.com 1.10,2013-02-02 00:36:00,
2013-02-01 19:51:00,30.5,11.0,30.34,NNE,13,0.0,5.0,45,0.00,,,0.00,weatherlink.com 1.10,2013-02-02 00:51:00,
2013-02-01 20:06:00,30.4,12.0,30.34,North,9,2.0,4.0,46,0.00,,,0.00,weatherlink.com 1.10,2013-02-02 01:06:00,
2013-02-01 20:21:00,30.2,11.0,30.34,North,11,2.0,5.0,45,0.00,,,0.00,weatherlink.com 1.10,2013-02-02 01:21:00,
2013-02-01 20:36:00,30.0,11.0,30.35,NW,320,4.0,5.0,45,0.00,,,0.00,weatherlink.com 1.10,2013-02-02 01:36:00,
2013-02-01 20:51:00,29.7,12.0,30.35,NNE,12,3.0,5.0,47,0.00,,,0.00,weatherlink.com 1.10,2013-02-02 01:51:00,
2013-02-01 21:06:00,29.6,11.0,30.35,NNE,32,3.0,4.0,47,0.00,,,0.00,weatherlink.com 1.10,2013-02-02 02:06:00,
2013-02-01 21:21:00,29.5,11.0,30.36,NNE,27,1.0,6.0,47,0.00,,,0.00,weatherlink.com 1.10,2013-02-02 02:21:00,
2013-02-01 21:36:00,29.3,11.0,30.36,NNW,328,2.0,4.0,47,0.00,,,0.00,weatherlink.com 1.10,2013-02-02 02:36:00,
2013-02-01 21:51:00,29.1,11.0,30.36,North,359,2.0,8.0,47,0.00,,,0.00,weatherlink.com 1.10,2013-02-02 02:51:00,
2013-02-01 22:06:00,28.9,12.0,30.36,NE,34,1.0,5.0,49,0.00,,,0.00,weatherlink.com 1.10,2013-02-02 03:06:00,
2013-02-01 22:21:00,28.6,12.0,30.37,NW,316,3.0,6.0,49,0.00,,,0.00,weatherlink.com 1.10,2013-02-02 03:21:00,
2013-02-01 22:36:00,28.5,12.0,30.37,NNE,17,3.0,5.0,50,0.00,,,0.00,weatherlink.com 1.10,2013-02-02 03:36:00,
2013-02-01 22:51:00,28.5,12.0,30.36,NNE,27,0.0,3.0,50,0.00,,,0.00,weatherlink.com 1.10,2013-02-02 03:51:00,
2013-02-01 23:06:00,28.3,12.0,30.38,ENE,61,0.0,2.0,50,0.00,,,0.00,weatherlink.com 1.10,2013-02-02 04:06:00,
2013-02-01 23:21:00,28.0,12.0,30.37,SE,138,0.0,1.0,52,0.00,,,0.00,weatherlink.com 1.10,2013-02-02 04:21:00,
2013-02-01 23:36:00,27.5,11.0,30.37,SE,139,0.0,0.0,50,0.00,,,0.00,weatherlink.com 1.10,2013-02-02 04:36:00,
2013-02-01 23:51:00,27.1,14.0,30.38,SE,138,0.0,0.0,57,0.00,,,0.00,weatherlink.com 1.10,2013-02-02 04:51:00,